TimeEDT,TemperatureF,Dew PointF,Humidity,Sea Level PressureIn,VisibilityMPH,Wind Direction,Wind SpeedMPH,Gust SpeedMPH,PrecipitationIn,Events,Conditions,WindDirDegrees,DateUTC
12:53 AM,51.1,48.0,89,30.03,10.0,NE,3.5,-,0.02,Rain,Light Rain,40,2013-10-03 04:53:00
1:53 AM,52.0,46.9,83,30.01,10.0,NE,6.9,-,0.02,Rain,Light Rain,40,2013-10-03 05:53:00
2:53 AM,51.1,46.9,86,30.02,8.0,NE,4.6,-,0.05,Rain,Light Rain,50,2013-10-03 06:53:00
3:53 AM,51.1,46.9,86,30.01,10.0,ENE,5.8,-,0.02,Rain,Light Rain,70,2013-10-03 07:53:00
4:53 AM,51.1,48.0,89,30.00,6.0,ENE,6.9,-,0.06,Rain,Light Rain,60,2013-10-03 08:53:00
5:53 AM,51.1,48.9,92,30.00,10.0,East,8.1,-,0.01,Rain,Light Rain,90,2013-10-03 09:53:00
6:53 AM,52.0,48.9,89,30.01,5.0,ENE,8.1,-,0.01,Rain,Light Rain,70,2013-10-03 10:53:00
7:22 AM,51.8,50.0,94,30.01,3.0,ENE,6.9,-,0.02,Rain,Light Rain,70,2013-10-03 11:22:00
7:53 AM,52.0,50.0,93,30.02,5.0,ENE,5.8,-,0.04,Rain,Light Rain,60,2013-10-03 11:53:00
8:42 AM,51.8,50.0,94,30.02,7.0,East,8.1,-,0.01,,Overcast,80,2013-10-03 12:42:00
8:53 AM,52.0,50.0,93,30.04,3.0,East,9.2,-,0.01,,Overcast,80,2013-10-03 12:53:00
9:02 AM,51.8,50.0,94,30.02,2.0,East,8.1,-,0.00,Rain,Light Rain,80,2013-10-03 13:02:00
9:21 AM,51.8,50.0,94,30.02,1.5,East,10.4,-,0.01,,Overcast,90,2013-10-03 13:21:00
9:33 AM,51.8,-9999,N/A,30.02,2.5,East,9.2,-,0.01,,Overcast,90,2013-10-03 13:33:00
9:44 AM,51.8,-9999,N/A,30.02,1.2,East,10.4,-,0.01,,Overcast,90,2013-10-03 13:44:00
9:49 AM,51.8,50.0,94,30.02,3.0,East,9.2,-,0.01,,Overcast,100,2013-10-03 13:49:00
9:53 AM,52.0,50.0,93,30.03,8.0,East,6.9,-,0.01,,Overcast,100,2013-10-03 13:53:00
10:24 AM,51.8,50.0,94,30.01,10.0,East,9.2,-,N/A,,Overcast,100,2013-10-03 14:24:00
10:35 AM,51.8,50.0,94,30.01,10.0,East,9.2,-,N/A,,Overcast,100,2013-10-03 14:35:00
10:53 AM,53.1,50.0,89,30.01,10.0,East,8.1,-,N/A,,Overcast,90,2013-10-03 14:53:00
11:00 AM,53.6,-9999,N/A,30.01,10.0,East,6.9,-,N/A,,Overcast,100,2013-10-03 15:00:00
11:36 AM,53.6,50.0,88,30.00,10.0,East,10.4,-,N/A,,Overcast,90,2013-10-03 15:36:00
11:53 AM,54.0,50.0,86,30.01,10.0,East,9.2,-,N/A,,Overcast,100,2013-10-03 15:53:00
12:53 PM,55.0,48.9,80,30.03,10.0,East,11.5,-,N/A,,Overcast,100,2013-10-03 16:53:00
1:16 PM,55.4,48.2,77,30.02,10.0,East,10.4,-,N/A,,Overcast,90,2013-10-03 17:16:00
1:53 PM,55.9,48.9,77,30.02,10.0,East,10.4,-,N/A,,Overcast,100,2013-10-03 17:53:00
2:53 PM,55.9,48.0,75,30.02,10.0,East,12.7,-,N/A,,Overcast,90,2013-10-03 18:53:00
3:40 PM,55.4,48.2,77,30.01,10.0,East,12.7,17.3,N/A,,Overcast,100,2013-10-03 19:40:00
3:53 PM,57.0,48.9,74,30.01,10.0,East,10.4,-,N/A,,Overcast,90,2013-10-03 19:53:00
4:00 PM,57.2,48.2,72,30.00,10.0,ENE,11.5,-,N/A,,Overcast,70,2013-10-03 20:00:00
4:07 PM,55.4,48.2,77,30.00,10.0,East,10.4,-,N/A,,Overcast,90,2013-10-03 20:07:00
4:53 PM,55.9,48.0,75,30.01,10.0,East,11.5,19.6,N/A,,Scattered Clouds,90,2013-10-03 20:53:00
5:53 PM,55.0,48.0,77,30.01,10.0,East,11.5,17.3,N/A,,Clear,100,2013-10-03 21:53:00
6:53 PM,54.0,48.0,80,30.01,10.0,East,10.4,-,N/A,,Clear,90,2013-10-03 22:53:00
7:53 PM,53.1,48.9,86,30.02,10.0,East,8.1,-,N/A,,Mostly Cloudy,80,2013-10-03 23:53:00
8:53 PM,53.1,48.0,83,30.03,10.0,NE,8.1,-,N/A,,Overcast,50,2013-10-04 00:53:00
9:53 PM,53.1,46.0,77,30.03,10.0,ENE,8.1,-,N/A,,Overcast,60,2013-10-04 01:53:00
10:53 PM,53.1,46.0,77,30.03,10.0,ENE,8.1,-,N/A,,Overcast,70,2013-10-04 02:53:00